Showing default

YAOGAN-30 B, 42946

Orbit data source: Space-Track

YAOGAN-30 B, 42946 is a payload satellite owned by PLA SSF (CN) in LEO that was launched on Fri, 29 Sep 2017 UTC via a CHANG ZHENG 2C launch vehicle from the Xichang Space Center, China (XSC). Payloads include a variety of satellites, spacecraft, and rockets equipped with specific instruments for various scientific and technological missions. These include communications satellites like Starlink; space stations such as the ISS; scientific satellites like the Hubble; Earth observation satellites from companies like Planet Labs, Umbra, and HawkEye 360; GPS; miniature CubeSats for education and research; and military/defense satellites.

Loading next visibility...
YAOGAN-30 B details
Identifier
42946, 2017-058B
Orbit
LEO
Last TLE update5 hours ago
Origin
Flag of CNPLA SSF (CN / PRC)
ManufacturerSECM
MissionOperational Defense Sigint
Bus & MotorUnknown
Mass~500 kg wet, ~500 kg dry
Launch date (UTC)
2017-09-29 (7 years ago)
Launch vehicle
CHANG ZHENG 2C
Launch site
Xichang Space Center, China (XSC)
Object type
Payload
Rocket body
Debris
Shape & HBRBox + 2 Pan, 1 m
Radar Cross Section0.446 m², Large (>1 m²)

Expand to show TLE details & history

TLE from 5 hours ago
0 YAOGAN-30 B
1 42946U 17058B   24361.20367157  .00007164  00000-0  59535-3 0  9991
2 42946  34.9987  59.1301 0002112 272.7483  87.2982 14.98089943395003
Epoch: 2024-12-26T04:53Z
Definitive object data (Epoch: 2024-12-26T04:53:17.223Z)
Latitude-0.00003°
Longitude-109.37813°
Altitude571.648 km
Speed7.577 km/s
True Right ascension03h 56m 31s
True Declination0° 00' 00"
Sunlit
Object was in full shadow at TLE epoch
Visualization TLE readout
Latitude31.4621°
Longitude-50.30189°
Altitude574.038 km
Speed7.578 km/s
Apparent Right ascension04h 22m 19s
Apparent Declination-11° 26' 52"
Sunlit
Object is in full shadow
Visualization observer readout
Local Sidereal Time09:19:37
Azimuth251.15° W
Elevation4.345°
Doppler factor1
Orbital elements
Apogee altitude577.482 km
Perigee altitude574.545 km
Semi-major axis6,954.15 km
Eccentricity0.0002112
Inclination34.9987°
RAAN59.1301°
Arg. of periapsis272.7483°
True anomaly87.32238°
Mean anomaly87.2982°
Eccentric anomaly87.31029°
Mean motion3.74263 °/min
BSTAR0.00059535
Orbital period96.19 mins
Loading maneuver chart data...
Loading historical data...
Loading historical data...
Loading historical data...
Loading historical data...
Loading historical data...
Loading historical data...
Loading historical data...
Other satellites on launch #58 in the year 2017 (2017-09-29 UTC)

YAOGAN-30 B Visibility forecast

Observer location: undefined°, undefined

Span
Click to sort rows by Start time (UTC) header in descending order
Start Az.
Max El. time (UTC)
Max El. Az.
Max El.
End time (UTC)
End Az.
7 mins2024-12-26 10:00:30.610Z242.78° WSW2024-12-26 10:03:30.610Z188.442° SSW33.345°2024-12-26 10:07:30.610Z107.109° ESE
6 mins2024-12-26 11:42:30.610Z246.672° WSW2024-12-26 11:45:30.610Z176.653° S29.161°2024-12-26 11:48:30.610Z128.502° SE
4 mins2024-12-26 13:24:30.610Z229.429° WSW2024-12-26 13:26:30.610Z197.621° SSW14.741°2024-12-26 13:28:30.610Z169.778° S
5 mins2024-12-27 08:21:30.610Z211.164° SW2024-12-27 08:23:30.610Z168.351° S26.867°2024-12-27 08:26:30.610Z110.279° ESE
|